nws-alerts: Checking more than four warning/county codes can delay the loading of your pages. You should use a cron job to get the data.
EllijayWeather Station Historical Data
Daily Summary for November 12, 2018 Units:  English    Metric   Both
Daily Weekly Monthly Yearly Custom
  High: Low: Average:
Temperature: 51.6 °F 39.4 °F 45.9 °F
Dew Point: 35.6 °F 25.3 °F 29.5 °F
Humidity: 75% 46% 53%
Wind Speed: 6.9mph 0.0mph 0.2mph
Wind Gust: 7.0mph - -
Wind- - SSE
Pressure: 30.34 in 30.06 in -
Precipitation: 2.20 in    
Historical Graphs
 
 
Tabular Data for November 12, 2018
Time Temperature Dew Point Pressure Wind Wind Speed Wind Gust Humidity Rainfall Rate (Hourly) solar
00:04 46.0 °F 31.6 °F 30.34 in Calm   1.0 mph 57% 0.00 in meteobridge W/m2
00:08 46.0 °F 31.6 °F 30.33 in Calm   5.0 mph 57% 0.00 in meteobridge W/m2
00:13 46.0 °F 31.6 °F 30.33 in Calm     57% 0.00 in meteobridge W/m2
00:19 46.0 °F 31.6 °F 30.33 in Calm   2.0 mph 57% 0.00 in meteobridge W/m2
00:24 46.0 °F 31.6 °F 30.34 in East 2.0 mph 5.0 mph 57% 0.00 in meteobridge W/m2
00:28 46.0 °F 32.0 °F 30.34 in Calm     58% 0.00 in meteobridge W/m2
00:34 46.0 °F 31.6 °F 30.33 in Calm   1.0 mph 57% 0.00 in meteobridge W/m2
00:39 46.0 °F 31.6 °F 30.33 in SE 0.9 mph 4.0 mph 57% 0.00 in meteobridge W/m2
00:44 46.0 °F 31.6 °F 30.33 in Calm     57% 0.00 in meteobridge W/m2
00:49 46.0 °F 32.0 °F 30.32 in SE 4.0 mph 4.0 mph 58% 0.00 in meteobridge W/m2
00:54 46.0 °F 32.0 °F 30.32 in Calm   5.0 mph 58% 0.00 in meteobridge W/m2
00:59 46.0 °F 32.0 °F 30.32 in SE 2.0 mph 4.0 mph 58% 0.00 in meteobridge W/m2
01:03 45.9 °F 32.0 °F 30.32 in SE 0.9 mph 2.0 mph 58% 0.00 in meteobridge W/m2
01:09 46.0 °F 32.0 °F 30.32 in Calm   2.0 mph 58% 0.00 in meteobridge W/m2
01:14 45.9 °F 32.0 °F 30.32 in Calm   7.0 mph 58% 0.00 in meteobridge W/m2
01:19 45.9 °F 31.5 °F 30.32 in Calm   2.0 mph 57% 0.00 in meteobridge W/m2
01:24 46.0 °F 32.0 °F 30.32 in Calm     58% 0.00 in meteobridge W/m2
01:29 45.9 °F 32.0 °F 30.32 in Calm   1.0 mph 58% 0.00 in meteobridge W/m2
01:34 45.9 °F 32.0 °F 30.32 in Calm   2.0 mph 58% 0.00 in meteobridge W/m2
01:39 45.9 °F 32.0 °F 30.32 in Calm     58% 0.00 in meteobridge W/m2
01:44 45.7 °F 31.8 °F 30.33 in Calm   2.0 mph 58% 0.00 in meteobridge W/m2
01:48 45.7 °F 31.8 °F 30.33 in Calm   1.0 mph 58% 0.00 in meteobridge W/m2
01:54 45.7 °F 31.8 °F 30.33 in SE 2.0 mph 2.0 mph 58% 0.00 in meteobridge W/m2
01:57 45.5 °F 31.6 °F 30.33 in Calm     58% 0.00 in meteobridge W/m2
02:04 45.5 °F 31.6 °F 30.33 in Calm     58% 0.00 in meteobridge W/m2
02:09 45.5 °F 31.6 °F 30.34 in Calm   1.0 mph 58% 0.00 in meteobridge W/m2
02:14 45.5 °F 31.6 °F 30.34 in Calm   5.0 mph 58% 0.00 in meteobridge W/m2
02:19 45.5 °F 31.6 °F 30.34 in Calm   1.0 mph 58% 0.00 in meteobridge W/m2
02:23 45.5 °F 32.0 °F 30.34 in Calm     59% 0.00 in meteobridge W/m2
02:29 45.7 °F 31.8 °F 30.34 in Calm   2.0 mph 58% 0.00 in meteobridge W/m2
02:33 45.7 °F 32.2 °F 30.34 in Calm     59% 0.00 in meteobridge W/m2
02:38 45.7 °F 32.2 °F 30.34 in Calm   1.0 mph 59% 0.00 in meteobridge W/m2
02:44 45.5 °F 32.4 °F 30.34 in Calm     60% 0.00 in meteobridge W/m2
02:49 45.3 °F 31.8 °F 30.34 in SE 0.9 mph 4.0 mph 59% 0.00 in meteobridge W/m2
02:54 45.3 °F 31.8 °F 30.34 in East 2.0 mph 5.0 mph 59% 0.00 in meteobridge W/m2
02:57 45.3 °F 31.8 °F 30.34 in Calm   4.0 mph 59% 0.00 in meteobridge W/m2
03:02 45.3 °F 31.8 °F 30.34 in Calm   2.0 mph 59% 0.00 in meteobridge W/m2
03:08 45.1 °F 31.6 °F 30.34 in SE 0.9 mph 1.0 mph 59% 0.00 in meteobridge W/m2
03:14 45.1 °F 32.0 °F 30.33 in ESE 2.0 mph 2.0 mph 60% 0.00 in meteobridge W/m2
03:19 45.1 °F 32.0 °F 30.33 in Calm     60% 0.00 in meteobridge W/m2
03:22 45.1 °F 32.0 °F 30.33 in Calm     60% 0.00 in meteobridge W/m2
03:29 45.1 °F 31.6 °F 30.33 in Calm   6.0 mph 59% 0.00 in meteobridge W/m2
03:34 45.1 °F 31.6 °F 30.33 in SE 6.9 mph 7.0 mph 59% 0.00 in meteobridge W/m2
03:38 45.1 °F 32.0 °F 30.33 in Calm   4.0 mph 60% 0.00 in meteobridge W/m2
03:43 45.1 °F 32.0 °F 30.33 in Calm   2.0 mph 60% 0.00 in meteobridge W/m2
03:46 45.1 °F 32.0 °F 30.33 in Calm   1.0 mph 60% 0.00 in meteobridge W/m2
03:53 45.1 °F 32.5 °F 30.33 in Calm   2.0 mph 61% 0.00 in meteobridge W/m2
03:57 45.1 °F 32.0 °F 30.34 in Calm   2.0 mph 60% 0.00 in meteobridge W/m2
04:08 45.1 °F 32.5 °F 30.34 in ESE 2.0 mph 4.0 mph 61% 0.00 in meteobridge W/m2
04:12 45.1 °F 32.5 °F 30.33 in Calm     61% 0.00 in meteobridge W/m2
04:19 45.0 °F 33.4 °F 30.34 in Calm     64% 0.00 in meteobridge W/m2
04:22 44.8 °F 34.2 °F 30.34 in Calm   1.0 mph 66% 0.00 in meteobridge W/m2
04:29 44.2 °F 35.1 °F 30.34 in Calm     70% 0.00 in meteobridge W/m2
04:30 44.1 °F 35.2 °F 30.33 in Calm     71% 0.00 in meteobridge W/m2
04:35 43.7 °F 35.6 °F 30.33 in Calm     73% 0.00 in meteobridge W/m2
04:43 43.0 °F 35.6 °F 30.33 in Calm     75% 0.01 in meteobridge W/m2
04:48 42.6 °F 35.2 °F 30.33 in Calm     75% 0.01 in meteobridge W/m2
04:56 42.1 °F 34.7 °F 30.34 in Calm     75% 0.01 in meteobridge W/m2
05:04 41.5 °F 33.6 °F 30.34 in Calm     73% 0.01 in meteobridge W/m2
05:09 41.4 °F 33.4 °F 30.34 in Calm     73% 0.02 in meteobridge W/m2
05:13 41.2 °F 32.5 °F 30.34 in Calm     71% 0.02 in meteobridge W/m2
05:15 41.0 °F 32.0 °F 30.34 in Calm     70% 0.02 in meteobridge W/m2
05:24 40.6 °F 30.9 °F 30.34 in Calm     68% 0.03 in meteobridge W/m2
05:33 40.5 °F 30.0 °F 30.34 in Calm     66% 0.04 in meteobridge W/m2
05:39 40.3 °F 29.8 °F 30.33 in Calm     66% 0.04 in meteobridge W/m2
05:49 39.9 °F 29.1 °F 30.32 in Calm     65% 0.05 in meteobridge W/m2
05:53 39.9 °F 29.1 °F 30.31 in Calm   1.0 mph 65% 0.05 in meteobridge W/m2
05:59 39.7 °F 28.6 °F 30.31 in Calm     64% 0.06 in meteobridge W/m2
06:04 39.6 °F 28.4 °F 30.30 in Calm     64% 0.06 in meteobridge W/m2
06:13 39.6 °F 28.0 °F 30.30 in Calm     63% 0.05 in meteobridge W/m2
06:19 39.6 °F 27.7 °F 30.30 in Calm   1.0 mph 62% 0.05 in meteobridge W/m2
06:22 39.6 °F 27.7 °F 30.30 in Calm     62% 0.06 in meteobridge W/m2
06:26 39.6 °F 27.7 °F 30.30 in Calm     62% 0.06 in meteobridge W/m2
06:31 39.6 °F 27.1 °F 30.30 in Calm     61% 0.05 in meteobridge W/m2
06:39 39.6 °F 27.1 °F 30.30 in Calm     61% 0.04 in meteobridge W/m2
06:44 39.6 °F 26.8 °F 30.30 in Calm     60% 0.05 in meteobridge W/m2
06:59 39.6 °F 26.4 °F 30.29 in Calm     59% 0.04 in meteobridge W/m2
07:04 39.6 °F 26.4 °F 30.28 in Calm     59% 0.04 in meteobridge W/m2
07:13 39.6 °F 26.4 °F 30.28 in Calm     59% 0.04 in meteobridge W/m2
07:19 39.4 °F 26.2 °F 30.27 in Calm     59% 0.05 in meteobridge W/m2
07:24 39.4 °F 26.2 °F 30.27 in ESE 2.0 mph 2.0 mph 59% 0.04 in meteobridge W/m2
07:26 39.4 °F 26.2 °F 30.27 in Calm   1.0 mph 59% 0.04 in meteobridge W/m2
07:33 39.4 °F 25.9 °F 30.27 in Calm     58% 0.04 in meteobridge W/m2
07:38 39.4 °F 25.9 °F 30.26 in Calm     58% 0.05 in meteobridge W/m2
07:41 39.4 °F 25.9 °F 30.26 in Calm     58% 0.04 in meteobridge W/m2
07:48 39.4 °F 25.9 °F 30.26 in Calm     58% 0.05 in meteobridge W/m2
07:54 39.6 °F 25.5 °F 30.25 in Calm     57% 0.04 in meteobridge W/m2
07:59 39.6 °F 25.5 °F 30.25 in Calm   5.0 mph 57% 0.04 in meteobridge W/m2
08:04 39.7 °F 25.7 °F 30.25 in Calm     57% 0.05 in meteobridge W/m2
08:09 39.7 °F 25.3 °F 30.25 in Calm     56% 0.04 in meteobridge W/m2
08:12 39.9 °F 25.5 °F 30.25 in Calm     56% 0.05 in meteobridge W/m2
08:16 39.9 °F 25.5 °F 30.25 in South 0.9 mph 1.0 mph 56% 0.05 in meteobridge W/m2
08:29 40.5 °F 25.5 °F 30.27 in Calm     55% 0.04 in meteobridge W/m2
08:34 40.5 °F 25.5 °F 30.28 in Calm     55% 0.05 in meteobridge W/m2
08:36 40.6 °F 25.7 °F 30.28 in Calm     55% 0.04 in meteobridge W/m2
08:43 40.8 °F 25.9 °F 30.29 in Calm     55% 0.06 in meteobridge W/m2
08:54 41.0 °F 25.7 °F 30.27 in Calm     54% 0.10 in meteobridge W/m2
08:59 41.2 °F 25.9 °F 30.27 in Calm     54% 0.09 in meteobridge W/m2
09:03 41.2 °F 25.9 °F 30.28 in Calm     54% 0.10 in meteobridge W/m2
09:07 41.2 °F 25.9 °F 30.29 in Calm     54% 0.11 in meteobridge W/m2
09:13 41.2 °F 25.9 °F 30.27 in Calm     54% 0.10 in meteobridge W/m2
09:19 41.4 °F 25.9 °F 30.27 in Calm     54% 0.12 in meteobridge W/m2
09:23 41.4 °F 25.9 °F 30.27 in Calm     54% 0.12 in meteobridge W/m2
09:34 41.2 °F 25.9 °F 30.26 in SSW 0.9 mph 1.0 mph 54% 0.12 in meteobridge W/m2
09:38 41.2 °F 25.9 °F 30.26 in Calm     54% 0.12 in meteobridge W/m2
09:44 41.0 °F 25.7 °F 30.26 in Calm   1.0 mph 54% 0.10 in meteobridge W/m2
09:48 40.8 °F 25.5 °F 30.27 in Calm     54% 0.09 in meteobridge W/m2
09:54 41.0 °F 25.7 °F 30.28 in Calm     54% 0.08 in meteobridge W/m2
10:04 41.4 °F 25.9 °F 30.28 in Calm     54% 0.09 in meteobridge W/m2
10:13 41.5 °F 25.7 °F 30.27 in Calm     53% 0.10 in meteobridge W/m2
10:16 41.7 °F 25.9 °F 30.26 in Calm   1.0 mph 53% 0.09 in meteobridge W/m2
10:21 41.7 °F 25.9 °F 30.25 in Calm     53% 0.08 in meteobridge W/m2
10:27 41.9 °F 26.1 °F 30.25 in Calm     53% 0.08 in meteobridge W/m2
10:32 42.1 °F 26.2 °F 30.24 in Calm     53% 0.07 in meteobridge W/m2
10:41 42.3 °F 26.4 °F 30.23 in Calm   2.0 mph 53% 0.06 in meteobridge W/m2
10:46 42.3 °F 25.9 °F 30.23 in Calm   4.0 mph 52% 0.05 in meteobridge W/m2
10:54 42.4 °F 26.1 °F 30.23 in Calm     52% 0.04 in meteobridge W/m2
10:58 42.6 °F 26.2 °F 30.23 in Calm     52% 0.04 in meteobridge W/m2
11:02 42.8 °F 26.4 °F 30.24 in Calm     52% 0.02 in meteobridge W/m2
11:06 42.8 °F 26.4 °F 30.22 in Calm     52% 0.02 in meteobridge W/m2
11:14 43.2 °F 26.8 °F 30.23 in Calm     52% 0.02 in meteobridge W/m2
11:24 43.2 °F 26.8 °F 30.24 in Calm     52% 0.05 in meteobridge W/m2
11:28 43.2 °F 26.8 °F 30.23 in Calm     52% 0.06 in meteobridge W/m2
11:31 43.2 °F 26.8 °F 30.22 in Calm     52% 0.07 in meteobridge W/m2
11:39 43.2 °F 26.8 °F 30.22 in Calm     52% 0.09 in meteobridge W/m2
11:42 43.2 °F 26.2 °F 30.22 in Calm     51% 0.10 in meteobridge W/m2
11:50 43.3 °F 26.4 °F 30.22 in Calm     51% 0.13 in meteobridge W/m2
11:58 43.3 °F 26.4 °F 30.23 in Calm     51% 0.16 in meteobridge W/m2
12:03 43.3 °F 26.4 °F 30.23 in Calm     51% 0.20 in meteobridge W/m2
12:05 43.3 °F 26.4 °F 30.23 in Calm   1.0 mph 51% 0.20 in meteobridge W/m2
12:14 43.3 °F 26.4 °F 30.24 in Calm     51% 0.22 in meteobridge W/m2
12:29 43.3 °F 26.4 °F 30.20 in Calm     51% 0.25 in meteobridge W/m2
12:34 43.3 °F 26.4 °F 30.18 in Calm     51% 0.26 in meteobridge W/m2
12:39 43.3 °F 26.4 °F 30.18 in Calm     51% 0.28 in meteobridge W/m2
12:44 43.3 °F 26.4 °F 30.17 in Calm     51% 0.29 in meteobridge W/m2
12:48 43.5 °F 26.6 °F 30.17 in Calm     51% 0.30 in meteobridge W/m2
12:54 43.7 °F 26.8 °F 30.16 in Calm     51% 0.32 in meteobridge W/m2
12:58 43.9 °F 27.0 °F 30.16 in Calm   1.0 mph 51% 0.33 in meteobridge W/m2
13:04 43.9 °F 27.0 °F 30.15 in NNW 2.0 mph 2.0 mph 51% 0.35 in meteobridge W/m2
13:09 43.9 °F 27.0 °F 30.16 in Calm     51% 0.37 in meteobridge W/m2
13:13 43.9 °F 27.0 °F 30.16 in Calm     51% 0.40 in meteobridge W/m2
13:17 44.1 °F 27.1 °F 30.17 in Calm     51% 0.42 in meteobridge W/m2
13:21 44.1 °F 27.1 °F 30.16 in NE 2.0 mph 3.0 mph 51% 0.45 in meteobridge W/m2
13:27 44.2 °F 27.3 °F 30.14 in Calm   2.0 mph 51% 0.50 in meteobridge W/m2
13:33 44.4 °F 27.0 °F 30.15 in Calm     50% 0.51 in meteobridge W/m2
13:39 44.6 °F 27.1 °F 30.14 in Calm     50% 0.51 in meteobridge W/m2
13:44 44.8 °F 27.3 °F 30.14 in Calm     50% 0.52 in meteobridge W/m2
13:54 45.0 °F 27.5 °F 30.12 in Calm     50% 0.52 in meteobridge W/m2
13:59 45.1 °F 27.7 °F 30.12 in Calm   1.0 mph 50% 0.50 in meteobridge W/m2
14:03 45.1 °F 27.7 °F 30.11 in Calm     50% 0.48 in meteobridge W/m2
14:09 45.1 °F 27.7 °F 30.11 in Calm     50% 0.48 in meteobridge W/m2
14:12 45.3 °F 27.9 °F 30.11 in Calm     50% 0.47 in meteobridge W/m2
14:19 45.3 °F 27.9 °F 30.12 in Calm     50% 0.45 in meteobridge W/m2
14:24 45.5 °F 27.9 °F 30.13 in Calm     50% 0.41 in meteobridge W/m2
14:29 45.7 °F 28.0 °F 30.13 in Calm     50% 0.41 in meteobridge W/m2
14:34 45.9 °F 27.9 °F 30.14 in WNW 0.9 mph 1.0 mph 49% 0.41 in meteobridge W/m2
14:39 45.9 °F 28.2 °F 30.16 in Calm     50% 0.40 in meteobridge W/m2
14:44 45.9 °F 27.9 °F 30.16 in WNW 0.9 mph 3.0 mph 49% 0.42 in meteobridge W/m2
14:49 46.0 °F 27.9 °F 30.17 in Calm   2.0 mph 49% 0.44 in meteobridge W/m2
14:54 45.9 °F 27.9 °F 30.18 in Calm   1.0 mph 49% 0.46 in meteobridge W/m2
14:59 46.0 °F 27.9 °F 30.20 in Calm     49% 0.48 in meteobridge W/m2
15:04 46.0 °F 27.9 °F 30.18 in Calm     49% 0.48 in meteobridge W/m2
15:09 46.0 °F 27.9 °F 30.16 in Calm     49% 0.50 in meteobridge W/m2
15:14 46.2 °F 28.0 °F 30.16 in Calm     49% 0.48 in meteobridge W/m2
15:19 46.2 °F 28.0 °F 30.16 in Calm     49% 0.46 in meteobridge W/m2
15:24 46.2 °F 28.0 °F 30.15 in Calm     49% 0.46 in meteobridge W/m2
15:29 46.2 °F 28.0 °F 30.15 in Calm     49% 0.44 in meteobridge W/m2
15:34 46.4 °F 28.2 °F 30.14 in Calm     49% 0.43 in meteobridge W/m2
15:39 46.6 °F 28.4 °F 30.14 in Calm     49% 0.43 in meteobridge W/m2
15:44 46.6 °F 28.4 °F 30.13 in Calm     49% 0.38 in meteobridge W/m2
15:49 46.6 °F 28.4 °F 30.11 in Calm     49% 0.35 in meteobridge W/m2
15:54 46.9 °F 28.8 °F 30.11 in Calm     49% 0.30 in meteobridge W/m2
15:59 47.1 °F 28.9 °F 30.12 in Calm     49% 0.26 in meteobridge W/m2
16:04 47.5 °F 29.3 °F 30.10 in Calm     49% 0.23 in meteobridge W/m2
16:09 47.7 °F 28.9 °F 30.09 in Calm   4.0 mph 48% 0.18 in meteobridge W/m2
16:14 48.0 °F 29.3 °F 30.10 in Calm   1.0 mph 48% 0.15 in meteobridge W/m2
16:19 48.0 °F 29.3 °F 30.10 in Calm     48% 0.14 in meteobridge W/m2
16:24 48.0 °F 29.3 °F 30.10 in Calm     48% 0.13 in meteobridge W/m2
16:29 48.2 °F 29.5 °F 30.09 in Calm     48% 0.11 in meteobridge W/m2
16:34 48.4 °F 29.7 °F 30.10 in Calm     48% 0.08 in meteobridge W/m2
16:39 48.7 °F 29.8 °F 30.09 in Calm     48% 0.07 in meteobridge W/m2
16:44 48.7 °F 29.8 °F 30.09 in Calm     48% 0.05 in meteobridge W/m2
16:49 49.1 °F 30.2 °F 30.09 in Calm     48% 0.03 in meteobridge W/m2
16:54 49.5 °F 30.6 °F 30.09 in Calm     48% 0.03 in meteobridge W/m2
16:59 49.6 °F 30.2 °F 30.08 in Calm     47% 0.02 in meteobridge W/m2
17:04 50.2 °F 30.7 °F 30.07 in Calm     47% 0.02 in meteobridge W/m2
17:09 50.4 °F 30.9 °F 30.08 in Calm   1.0 mph 47% 0.02 in meteobridge W/m2
17:14 50.5 °F 31.1 °F 30.08 in Calm     47% 0.02 in meteobridge W/m2
17:19 50.5 °F 31.1 °F 30.08 in Calm     47% 0.02 in meteobridge W/m2
17:24 50.9 °F 30.9 °F 30.08 in Calm   2.0 mph 46% 0.02 in meteobridge W/m2
17:29 51.3 °F 31.6 °F 30.07 in SE 2.0 mph 4.0 mph 47% 0.02 in meteobridge W/m2
17:34 51.4 °F 31.3 °F 30.07 in Calm   2.0 mph 46% 0.02 in meteobridge W/m2
17:39 51.4 °F 31.3 °F 30.07 in Calm     46% 0.01 in meteobridge W/m2
17:44 51.4 °F 31.3 °F 30.06 in Calm     46% 0.01 in meteobridge W/m2
17:49 51.6 °F 31.5 °F 30.07 in Calm     46% 0.01 in meteobridge W/m2
17:54 51.4 °F 31.3 °F 30.07 in Calm     46% 0.01 in meteobridge W/m2
17:59 51.1 °F 31.1 °F 30.07 in Calm     46% 0.01 in meteobridge W/m2
18:04 51.1 °F 31.1 °F 30.07 in Calm     46% 0.01 in meteobridge W/m2
18:09 51.1 °F 31.1 °F 30.07 in SSE 0.9 mph 1.0 mph 46% 0.01 in meteobridge W/m2
18:14 51.1 °F 31.1 °F 30.08 in Calm     46% 0.01 in meteobridge W/m2
18:19 51.1 °F 31.1 °F 30.08 in Calm     46% 0.01 in meteobridge W/m2
18:24 51.3 °F 31.1 °F 30.07 in Calm     46% 0.00 in meteobridge W/m2
18:29 51.4 °F 31.3 °F 30.08 in Calm     46% 0.00 in meteobridge W/m2
18:34 51.4 °F 31.3 °F 30.08 in Calm     46% 0.00 in meteobridge W/m2
18:39 51.4 °F 31.3 °F 30.09 in SSE 2.0 mph 4.0 mph 46% 0.00 in meteobridge W/m2
18:44 51.6 °F 31.5 °F 30.09 in Calm   4.0 mph 46% 0.00 in meteobridge W/m2
18:49 51.6 °F 31.5 °F 30.09 in Calm   4.0 mph 46% 0.00 in meteobridge W/m2
18:54 51.6 °F 31.5 °F 30.09 in Calm   1.0 mph 46% 0.00 in meteobridge W/m2
18:59 51.4 °F 31.3 °F 30.09 in Calm     46% 0.00 in meteobridge W/m2
19:04 51.4 °F 31.3 °F 30.09 in Calm     46% 0.01 in meteobridge W/m2
19:09 51.4 °F 31.3 °F 30.09 in Calm     46% 0.01 in meteobridge W/m2
19:14 51.3 °F 31.1 °F 30.09 in Calm     46% 0.01 in meteobridge W/m2
19:19 51.3 °F 31.1 °F 30.09 in Calm   5.0 mph 46% 0.01 in meteobridge W/m2
19:24 51.1 °F 31.1 °F 30.09 in Calm     46% 0.01 in meteobridge W/m2
19:29 51.1 °F 31.1 °F 30.10 in Calm     46% 0.01 in meteobridge W/m2
19:34 51.1 °F 31.1 °F 30.10 in Calm     46% 0.01 in meteobridge W/m2
19:39 51.1 °F 31.1 °F 30.09 in Calm     46% 0.01 in meteobridge W/m2
19:44 50.9 °F 30.9 °F 30.10 in SE 4.0 mph 4.0 mph 46% 0.02 in meteobridge W/m2
19:49 50.9 °F 30.9 °F 30.10 in Calm     46% 0.02 in meteobridge W/m2
19:54 50.7 °F 30.7 °F 30.10 in Calm     46% 0.02 in meteobridge W/m2
19:59 50.7 °F 30.7 °F 30.10 in Calm     46% 0.02 in meteobridge W/m2
20:04 50.7 °F 30.7 °F 30.10 in Calm     46% 0.02 in meteobridge W/m2
20:09 50.7 °F 30.7 °F 30.09 in SE 0.9 mph 1.0 mph 46% 0.01 in meteobridge W/m2
20:14 50.7 °F 30.7 °F 30.09 in SE 4.0 mph 4.0 mph 46% 0.01 in meteobridge W/m2
20:19 50.5 °F 30.6 °F 30.09 in Calm   1.0 mph 46% 0.01 in meteobridge W/m2
20:24 50.5 °F 30.6 °F 30.08 in Calm     46% 0.01 in meteobridge W/m2
20:29 50.5 °F 30.6 °F 30.08 in Calm   2.0 mph 46% 0.01 in meteobridge W/m2
20:34 50.5 °F 30.6 °F 30.09 in Calm     46% 0.01 in meteobridge W/m2
20:39 50.5 °F 30.6 °F 30.09 in Calm     46% 0.01 in meteobridge W/m2
20:44 50.5 °F 30.6 °F 30.09 in Calm     46% 0.00 in meteobridge W/m2
20:49 50.5 °F 30.6 °F 30.09 in Calm     46% 0.00 in meteobridge W/m2
20:54 50.5 °F 30.6 °F 30.09 in Calm     46% 0.00 in meteobridge W/m2
20:59 50.4 °F 30.4 °F 30.09 in Calm     46% 0.00 in meteobridge W/m2
21:04 50.4 °F 30.4 °F 30.09 in Calm     46% 0.00 in meteobridge W/m2
21:09 50.4 °F 30.4 °F 30.09 in Calm     46% 0.00 in meteobridge W/m2
21:14 50.4 °F 30.4 °F 30.09 in Calm     46% 0.00 in meteobridge W/m2
21:19 50.4 °F 30.4 °F 30.09 in Calm   2.0 mph 46% 0.00 in meteobridge W/m2
21:24 50.2 °F 30.2 °F 30.09 in Calm   1.0 mph 46% 0.00 in meteobridge W/m2
21:29 50.2 °F 30.2 °F 30.09 in Calm     46% 0.00 in meteobridge W/m2
21:34 50.2 °F 30.2 °F 30.09 in Calm     46% 0.00 in meteobridge W/m2
21:39 50.2 °F 30.2 °F 30.10 in Calm     46% 0.00 in meteobridge W/m2
21:44 50.2 °F 30.2 °F 30.09 in Calm     46% 0.00 in meteobridge W/m2
21:49 50.2 °F 30.2 °F 30.10 in Calm     46% 0.00 in meteobridge W/m2
21:54 50.2 °F 30.2 °F 30.10 in Calm     46% 0.00 in meteobridge W/m2
21:59 50.2 °F 30.2 °F 30.10 in Calm     46% 0.00 in meteobridge W/m2
22:04 50.2 °F 30.2 °F 30.10 in Calm     46% 0.00 in meteobridge W/m2
22:09 50.2 °F 30.2 °F 30.09 in Calm     46% 0.00 in meteobridge W/m2
22:14 50.2 °F 30.2 °F 30.09 in Calm     46% 0.01 in meteobridge W/m2
22:19 50.2 °F 30.2 °F 30.10 in Calm     46% 0.01 in meteobridge W/m2
22:24 50.0 °F 30.0 °F 30.10 in Calm     46% 0.01 in meteobridge W/m2
22:29 50.0 °F 30.6 °F 30.10 in Calm     47% 0.01 in meteobridge W/m2
22:34 50.0 °F 30.6 °F 30.09 in Calm   2.0 mph 47% 0.01 in meteobridge W/m2
22:39 49.8 °F 30.4 °F 30.09 in Calm   1.0 mph 47% 0.01 in meteobridge W/m2
22:44 49.8 °F 30.4 °F 30.08 in Calm   1.0 mph 47% 0.01 in meteobridge W/m2
22:49 49.8 °F 30.4 °F 30.09 in Calm     47% 0.01 in meteobridge W/m2
22:54 49.8 °F 30.4 °F 30.08 in Calm   2.0 mph 47% 0.01 in meteobridge W/m2
22:59 49.6 °F 30.2 °F 30.08 in Calm     47% 0.01 in meteobridge W/m2
23:04 49.6 °F 30.2 °F 30.07 in Calm   2.0 mph 47% 0.01 in meteobridge W/m2
23:09 49.6 °F 30.2 °F 30.06 in Calm     47% 0.01 in meteobridge W/m2
23:14 49.6 °F 30.2 °F 30.06 in Calm   1.0 mph 47% 0.00 in meteobridge W/m2
23:18 49.6 °F 31.3 °F 30.06 in Calm     49% 0.00 in meteobridge W/m2
23:24 49.6 °F 31.3 °F 30.07 in Calm     49% 0.00 in meteobridge W/m2
23:29 49.6 °F 30.2 °F 30.07 in SE 0.9 mph 1.0 mph 47% 0.00 in meteobridge W/m2
23:34 49.6 °F 30.2 °F 30.06 in Calm     47% 0.00 in meteobridge W/m2
23:39 49.6 °F 30.2 °F 30.06 in SSE 2.0 mph 2.0 mph 47% 0.00 in meteobridge W/m2
23:44 49.6 °F 30.2 °F 30.06 in Calm     47% 0.00 in meteobridge W/m2
23:49 49.5 °F 30.0 °F 30.07 in Calm   1.0 mph 47% 0.00 in meteobridge W/m2
23:54 49.5 °F 30.0 °F 30.08 in Calm     47% 0.00 in meteobridge W/m2
23:59 49.5 °F 30.0 °F 30.08 in Calm     47% 0.02 in meteobridge W/m2
EllijayWeather
Compliments of Weather Underground - 2.5 mb